[[{"header":{"parameterUnit":"m.s-1","parameterCategory":1,"la1":30.2991,"la2":30.254,"lo1":-89.0895,"lo2":-89.0444,"dy":0.0017,"dx":0.0017,"nx":28,"ny":28,"refTime":"2023-09-29T21:00:00:Z","depth":0,"parameterNumber":2,"parameterNumberName":"U-component_of_WINDS"},"data":[0,0,0,0,0,0,0,0,0,0,0,0,0,0,0,0,0,0,0,0,0,0,0,0,0,0,0,0,0,0,0,0,0,0,0,0,0,0,0,0,0,0,0,0,0,0,0,0,0,0,0,0,0,0,0,0,0,0,-3.9201,-3.9201,0,-3.9245,-3.9246,-3.9246,-3.9162,-3.9159,-3.9156,-3.9153,-3.9202,-3.9205,-3.9209,0,0,0,0,0,0,0,0,0,0,0,0,0,-3.9045,-3.9048,-3.9201,-3.9201,-3.9202,-3.9245,-3.9246,-3.9247,-3.9162,-3.9159,-3.9155,-3.9152,-3.92,-3.9205,-3.921,0,0,0,0,0,0,0,0,0,0,0,0,0,-3.9104,-3.905,-3.9201,-3.9165,-3.9162,-3.9245,-3.9246,-3.9247,-3.9163,-3.9159,-3.9154,-3.915,-3.9199,-3.9205,-3.921,-3.9331,0,0,-3.9228,-3.9231,0,0,0,0,0,0,0,0,-3.9101,-3.911,-3.917,-3.9168,-3.9165,-3.9193,-3.9209,-3.9275,-3.9164,-3.9163,-3.9153,-3.9148,-3.9203,-3.9208,-3.9226,-3.9333,-3.9336,-3.9229,-3.9232,-3.9235,-3.9237,0,0,0,0,0,0,0,-3.9097,-3.9107,-3.9218,-3.9171,-3.9168,-3.9148,-3.9151,-3.9221,-3.9206,-3.9162,-3.9156,-3.9163,-3.92,-3.922,-3.9226,-3.9336,-3.9229,-3.9234,-3.9237,-3.924,-3.9548,-3.9552,0,0,0,0,0,0,-3.9097,-3.9104,-3.9217,-3.922,-3.9121,-3.9154,-3.9158,-3.9189,-3.9205,-3.9203,-3.9166,-3.9159,-3.9212,-3.9219,-3.9227,-3.9372,-3.9235,-3.924,-3.9244,-3.9543,-3.9549,-3.9554,0,0,0,0,0,0,-3.9094,-3.9107,-3.9215,-3.916,-3.9173,-3.9161,-3.9196,-3.9192,-3.9211,-3.9208,-3.9205,-3.9189,-3.9209,-3.9219,-3.9306,-3.9372,-3.9243,-3.9248,-3.9538,-3.9545,-3.9551,-3.9661,0,0,0,0,0,0,-3.9089,-3.9107,-3.9152,-3.9162,-3.9176,-3.9293,-3.92,-3.9196,-3.9221,-3.9212,-3.9228,-3.9227,-3.9207,-3.9298,-3.9312,-3.9378,-3.9253,-3.9532,-3.9541,-3.9549,-3.9652,-3.9671,-3.9688,0,0,0,0,0,-3.9084,-3.9181,-3.9155,-3.9169,-3.9232,-3.9297,-3.9305,-3.9279,-3.9227,-3.9273,-3.9271,-3.9227,-3.9362,-3.9308,-3.9323,-3.9392,-3.9528,-3.9538,-3.9548,-3.9643,-3.9667,-3.9687,0,0,0,0,0,0,-3.918,-3.9182,-3.9153,-3.9255,-3.9277,-3.9282,-3.9339,-3.9304,-3.9341,-3.9331,-3.9297,-3.9301,-3.9396,-3.9402,-3.9341,-3.9511,-3.9436,-3.9451,-3.9504,-3.9526,-3.9544,-3.9541,-3.9258,0,0,0,0,0,-3.9213,-3.9264,-3.9263,-3.9355,-3.9367,-3.9352,-3.9379,-3.9357,-3.9377,-3.9386,-3.939,-3.9413,-3.9461,-3.9493,-3.9537,-3.9651,-3.9655,-3.9706,-3.9724,-3.9739,-3.9752,-3.9815,-3.9839,-3.9588,-3.9588,-3.9588,0,0,-3.9282,-3.9289,-3.9324,-3.9374,-3.9388,-3.9444,-3.936,-3.9421,-3.9463,-3.9396,-3.9479,-3.9483,-3.9506,-3.9608,-3.9653,-3.9616,-3.9822,-3.9752,-3.9764,-3.9769,-3.9829,-3.9852,-3.9874,-3.9595,-3.9594,-3.9593,0,0,-3.9436,-3.9446,-3.9524,-3.9539,-3.9561,-3.955,-3.9569,-3.9581,-3.9581,-3.9663,-3.9614,-3.9663,-3.9746,-3.9765,-3.9786,-3.9949,-3.991,-3.9964,-4.0059,-4.0121,-4.0141,-4.0158,-4.0219,-4.024,-3.9976,-3.9977,-3.9977,0,-3.952,-3.9601,-3.9569,-3.9635,-3.9659,-3.96,-3.968,-3.9696,-3.9732,-3.975,-3.9708,-3.9811,-3.9823,-3.9929,-3.9969,-3.9987,-4.0009,-3.9963,-4.014,-4.0157,-4.0173,-4.023,-4.0253,-3.9983,-3.9982,-3.9982,-3.9981,0,-3.9703,-3.976,-3.982,-3.9856,-3.9887,-3.9959,-3.994,-3.9975,-3.995,-3.9945,-4.003,-4.0042,-4.0088,-4.0111,-4.0087,-4.0215,-4.0192,-4.0145,-4.0071,-4.0204,-4.0258,-4.0279,-3.9993,-3.999,-3.9988,-3.9987,0,0,-3.992,-3.9937,-3.996,-3.9977,-3.9996,-4.004,-4.0111,-4.0155,-4.0187,-4.0213,-4.0273,-4.0344,-4.0302,-4.0325,-4.0303,-4.0358,-4.0489,-4.0304,-4.0305,-4.0341,-4.0633,-4.067,-4.0696,-4.0462,-4.0466,-4.047,-4.0632,0,-4.0076,-4.0196,-4.017,-4.0289,-4.0343,-4.0287,-4.0349,-4.0369,-4.0365,-4.0411,-4.0407,-4.0459,-4.0398,-4.0412,-4.0463,-4.0462,-4.0548,-4.045,-4.052,-4.0523,-4.0519,-4.0723,-4.0762,-4.0915,-4.0653,-4.0656,-4.0659,0,-4.0273,-4.0307,-4.0432,-4.0444,-4.0466,-4.0521,-4.0561,-4.0604,-4.0626,-4.062,-4.0647,-4.0615,-4.0686,-4.0609,-4.0708,-4.0642,-4.0669,-4.0673,-4.0678,-4.0686,-4.0601,-4.0739,-4.0963,-4.0987,-4.0691,-4.0688,-4.0686,0,-4.0423,-4.0499,-4.0584,-4.0599,-4.0615,-4.0656,-4.0665,-4.0682,-4.0711,-4.0745,-4.0764,-4.0807,-4.0831,-4.0865,-4.0846,-4.0791,-4.095,-4.087,-4.0949,-4.095,-4.0987,-4.0985,-4.1221,-4.1,-4.1,-4.0999,-4.0999,0,-4.06,-4.0679,-4.0651,-4.0704,-4.0792,-4.0761,-4.0849,-4.0851,-4.0867,-4.092,-4.0874,-4.0925,-4.0896,-4.0945,-4.093,-4.1017,-4.1027,-4.1026,-4.1021,-4.1031,-4.1032,-4.1051,-4.1041,-4.1005,-4.1004,-4.1003,-4.1002,0,-4.0783,-4.0767,-4.0856,-4.0864,-4.0868,-4.0933,-4.094,-4.099,-4.0982,-4.105,-4.1065,-4.1054,-4.111,-4.1094,-4.1154,-4.1144,-4.1254,-4.1235,-4.1247,-4.1243,-4.1324,-4.1317,-4.1582,-4.1616,-4.137,-4.1373,-4.1375,0,-4.0899,-4.0958,-4.0972,-4.1005,-4.1017,-4.1069,-4.1098,-4.107,-4.1102,-4.1132,-4.1179,-4.123,-4.127,-4.1362,-4.1361,-4.1408,-4.1391,-4.148,-4.1398,-4.1407,-4.1396,-4.1394,-4.1401,-4.1498,-4.15,-4.1503,-4.1505,0,-4.1107,-4.1096,-4.1139,-4.1181,-4.1217,-4.1249,-4.1276,-4.1305,-4.1279,-4.1318,-4.1374,-4.1405,-4.1467,-4.152,-4.1562,-4.1572,-4.1536,-4.153,-4.1551,-4.1564,-4.1569,-4.157,-4.1295,-4.1525,-4.1523,-4.1521,-4.152,-4.1519,-4.1261,-4.1312,-4.1331,-4.1381,-4.1399,-4.1426,-4.1473,-4.1472,-4.1518,-4.1566,-4.1546,-4.1612,-4.1633,-4.1686,-4.1702,-4.1754,-4.172,-4.175,-4.1758,-4.1767,-4.1778,-4.1559,-4.1761,-4.1761,-4.176,-4.176,-4.1759,0,-4.1469,-4.1478,-4.1525,-4.1565,-4.1605,-4.1565,-4.1593,-4.163,-4.1688,-4.171,-4.1751,-4.1816,-4.1867,-4.187,-4.1918,-4.196,-4.1944,-4.1973,-4.1972,-4.1975,-4.1804,-4.1783,-4.1985,-4.1985,-4.1985,-4.1985,-4.1985,-4.1985,-4.1582,-4.1668,-4.166,-4.1754,-4.1762,-4.1825,-4.1846,-4.1871,-4.1889,-4.1964,-4.2006,-4.2007,-4.2022,-4.2071,-4.2117,-4.2116,-4.2138,-4.2174,-4.2168,-4.2009,-4.1987,-4.1965,-4.1945,-4.2178,-4.2179,-4.2335,-4.2336,-4.2337]},{"header":{"parameterUnit":"m.s-1","parameterCategory":1,"la1":30.2991,"la2":30.254,"lo1":-89.0895,"lo2":-89.0444,"dy":0.0017,"dx":0.0017,"nx":28,"ny":28,"refTime":"2023-09-29T21:00:00:Z","depth":0,"parameterNumber":3,"parameterNumberName":"V-component_of_WINDS"},"data":[0,0,0,0,0,0,0,0,0,0,0,0,0,0,0,0,0,0,0,0,0,0,0,0,0,0,0,0,0,0,0,0,0,0,0,0,0,0,0,0,0,0,0,0,0,0,0,0,0,0,0,0,0,0,0,0,0,0,-3.0315,-3.0315,0,-3.0309,-3.0309,-3.0309,-3.027,-3.0269,-3.0268,-3.0267,-3.0261,-3.0262,-3.0262,0,0,0,0,0,0,0,0,0,0,0,0,0,-3.0294,-3.0294,-3.0315,-3.0315,-3.0315,-3.0309,-3.0309,-3.0309,-3.027,-3.0269,-3.0268,-3.0267,-3.0261,-3.0262,-3.0262,0,0,0,0,0,0,0,0,0,0,0,0,0,-3.0297,-3.0295,-3.0315,-3.0295,-3.0293,-3.0309,-3.0309,-3.0309,-3.027,-3.0269,-3.0267,-3.0266,-3.026,-3.0262,-3.0263,-3.0297,0,0,-3.0266,-3.0266,0,0,0,0,0,0,0,0,-3.0297,-3.0298,-3.0298,-3.0296,-3.0294,-3.0289,-3.0299,-3.0305,-3.0271,-3.0279,-3.0267,-3.0265,-3.0271,-3.0271,-3.0273,-3.0297,-3.0297,-3.0266,-3.0267,-3.0267,-3.0267,0,0,0,0,0,0,0,-3.0297,-3.0298,-3.0313,-3.0298,-3.0296,-3.0286,-3.0285,-3.03,-3.0283,-3.0278,-3.0275,-3.0275,-3.027,-3.0272,-3.0273,-3.0297,-3.0266,-3.0267,-3.0268,-3.0268,-3.0348,-3.0349,0,0,0,0,0,0,-3.0299,-3.0298,-3.0313,-3.0312,-3.0292,-3.0288,-3.0286,-3.0292,-3.0283,-3.028,-3.0276,-3.0273,-3.0271,-3.0272,-3.0273,-3.0312,-3.0267,-3.0268,-3.0269,-3.0346,-3.0348,-3.035,0,0,0,0,0,0,-3.0299,-3.0301,-3.0313,-3.0304,-3.0305,-3.029,-3.0296,-3.0293,-3.0295,-3.0281,-3.0278,-3.0282,-3.027,-3.0271,-3.0291,-3.0312,-3.0269,-3.0269,-3.0345,-3.0347,-3.0349,-3.0393,0,0,0,0,0,0,-3.0298,-3.0301,-3.0314,-3.0305,-3.0306,-3.0332,-3.0297,-3.0293,-3.0297,-3.0293,-3.0286,-3.0283,-3.0269,-3.029,-3.0292,-3.0312,-3.027,-3.0343,-3.0346,-3.0348,-3.0389,-3.0396,-3.0402,0,0,0,0,0,-3.0298,-3.0327,-3.0315,-3.0317,-3.0322,-3.0333,-3.0334,-3.0317,-3.0299,-3.0312,-3.0303,-3.0283,-3.0309,-3.0292,-3.0295,-3.0315,-3.0341,-3.0345,-3.0348,-3.0387,-3.0395,-3.0402,0,0,0,0,0,0,-3.034,-3.0326,-3.0312,-3.0339,-3.0338,-3.0327,-3.0343,-3.0326,-3.033,-3.0327,-3.0305,-3.0304,-3.0327,-3.0323,-3.0305,-3.0348,-3.0322,-3.0326,-3.035,-3.0358,-3.0364,-3.0365,-3.0271,0,0,0,0,0,-3.0352,-3.0363,-3.035,-3.0375,-3.0375,-3.0359,-3.0363,-3.035,-3.0348,-3.0347,-3.034,-3.0339,-3.0346,-3.0352,-3.0358,-3.0388,-3.0386,-3.0404,-3.041,-3.0415,-3.0419,-3.0435,-3.0442,-3.0361,-3.0361,-3.0361,0,0,-3.0378,-3.0371,-3.0379,-3.0383,-3.038,-3.0392,-3.0359,-3.0372,-3.038,-3.0349,-3.0368,-3.0363,-3.036,-3.0385,-3.0396,-3.0382,-3.0441,-3.0419,-3.0424,-3.0425,-3.0439,-3.0447,-3.0453,-3.0363,-3.0363,-3.0362,0,0,-3.0431,-3.0427,-3.0447,-3.0445,-3.0441,-3.043,-3.0435,-3.0426,-3.0422,-3.044,-3.0417,-3.0426,-3.0439,-3.0438,-3.0439,-3.049,-3.0473,-3.0493,-3.0526,-3.0541,-3.0548,-3.0553,-3.0572,-3.0579,-3.0497,-3.0497,-3.0497,0,-3.0463,-3.0479,-3.046,-3.0475,-3.0477,-3.0448,-3.0469,-3.0468,-3.0466,-3.0468,-3.0453,-3.0469,-3.0465,-3.0489,-3.0502,-3.0504,-3.0509,-3.0494,-3.0548,-3.0554,-3.0559,-3.0576,-3.0583,-3.0499,-3.0499,-3.0499,-3.0498,0,-3.052,-3.0531,-3.0548,-3.0547,-3.0551,-3.0568,-3.0551,-3.0557,-3.0544,-3.0534,-3.0553,-3.0547,-3.0551,-3.0556,-3.0543,-3.0579,-3.057,-3.0552,-3.0525,-3.0569,-3.0585,-3.0592,-3.0503,-3.0502,-3.0501,-3.0501,0,0,-3.06,-3.0587,-3.0593,-3.0592,-3.0585,-3.0594,-3.061,-3.0613,-3.0619,-3.0619,-3.0632,-3.0643,-3.0626,-3.0627,-3.0614,-3.0627,-3.0668,-3.0607,-3.0606,-3.0619,-3.0707,-3.0721,-3.0729,-3.0656,-3.0657,-3.0658,-3.0707,0,-3.0651,-3.0677,-3.066,-3.0689,-3.0699,-3.0672,-3.0685,-3.0683,-3.0674,-3.0681,-3.0672,-3.0681,-3.0657,-3.0658,-3.067,-3.066,-3.0685,-3.0657,-3.0668,-3.0669,-3.067,-3.0737,-3.0753,-3.08,-3.0713,-3.0714,-3.0715,0,-3.0714,-3.0716,-3.0746,-3.0736,-3.074,-3.0753,-3.0754,-3.0762,-3.0758,-3.075,-3.0751,-3.0734,-3.0749,-3.0722,-3.0742,-3.0723,-3.0726,-3.0722,-3.0724,-3.0725,-3.0695,-3.0741,-3.0814,-3.0821,-3.0725,-3.0724,-3.0723,0,-3.077,-3.078,-3.0799,-3.0799,-3.0788,-3.0797,-3.0793,-3.0788,-3.0791,-3.0793,-3.0794,-3.0798,-3.08,-3.0803,-3.0787,-3.0768,-3.0809,-3.0781,-3.0804,-3.0804,-3.0814,-3.0814,-3.089,-3.0815,-3.0815,-3.0815,-3.0815,0,-3.0829,-3.0849,-3.0824,-3.0836,-3.0857,-3.0836,-3.0857,-3.085,-3.0845,-3.0856,-3.0832,-3.0842,-3.082,-3.0828,-3.0815,-3.0834,-3.0835,-3.0829,-3.0826,-3.0832,-3.0833,-3.0834,-3.0831,-3.0817,-3.0817,-3.0816,-3.0816,0,-3.0895,-3.088,-3.0899,-3.0886,-3.0884,-3.09,-3.0889,-3.09,-3.0889,-3.0902,-3.0904,-3.0887,-3.0895,-3.0879,-3.0885,-3.0876,-3.0903,-3.0894,-3.0904,-3.0902,-3.0926,-3.0924,-3.1006,-3.1016,-3.0935,-3.0936,-3.0936,0,-3.0934,-3.0949,-3.0938,-3.0942,-3.0939,-3.0948,-3.095,-3.093,-3.0934,-3.093,-3.0941,-3.0947,-3.095,-3.0964,-3.0952,-3.0956,-3.0948,-3.0976,-3.0948,-3.0954,-3.0949,-3.0948,-3.095,-3.0982,-3.0983,-3.0984,-3.0985,0,-3.1006,-3.0997,-3.1001,-3.1004,-3.1007,-3.1008,-3.1007,-3.1013,-3.0991,-3.0996,-3.1004,-3.1006,-3.1012,-3.1018,-3.1019,-3.1015,-3.0996,-3.0993,-3.0999,-3.1006,-3.1011,-3.1009,-3.092,-3.0992,-3.0991,-3.0991,-3.099,-3.099,-3.106,-3.1071,-3.1065,-3.1071,-3.1067,-3.1067,-3.1076,-3.1066,-3.1072,-3.1074,-3.1061,-3.1072,-3.1066,-3.1066,-3.1064,-3.1071,-3.1059,-3.1067,-3.1069,-3.1071,-3.1076,-3.1009,-3.1072,-3.1071,-3.1071,-3.1071,-3.1071,0,-3.113,-3.1124,-3.113,-3.1129,-3.1133,-3.1114,-3.1112,-3.1117,-3.1126,-3.1123,-3.1127,-3.1135,-3.114,-3.1129,-3.1132,-3.1141,-3.1132,-3.1142,-3.1142,-3.1141,-3.1087,-3.1081,-3.1149,-3.1149,-3.1149,-3.1149,-3.1149,-3.1149,-3.1167,-3.1185,-3.1175,-3.1191,-3.1185,-3.1194,-3.1195,-3.1194,-3.1191,-3.1201,-3.1205,-3.1197,-3.1191,-3.1193,-3.1197,-3.1194,-3.1197,-3.121,-3.1203,-3.1153,-3.1145,-3.1138,-3.1133,-3.121,-3.121,-3.1257,-3.1258,-3.1258]}]]